Temp
51 51 51 51 51 51 50 51 51 51 51 50 50 50 50 50 50 50 50 50 50 50 50 50 50 50 50 51 51 50 50 49 49 49 49 49 48 48 48 48 48 48 48 48 47 47 47 47 48 48 48 48 47 46 46 46 46 47 47 47 47 47 46 46 46 46 46 46 46
51 51 51 51 51 50 50 50 50 51 51 50 50 50 50 50 49 49 49 50 50 50 50 50 50 50 50 50 50 50 50 49 49 48 48 48 48 48 48 48 48 48 48 48 47 47 47 47 47 47 47 47 46 46 46 46 46 46 46 46 46 45 45 45 45 45 45 45 45
50 50 50 50 50 49 49 49 50 50 50 50 50 50 50 50 49 49 49 50 50 50 49 49 50 50 50 50 50 50 49 49 48 48 47 47 47 47 47 48 48 48 48 48 47 47 47 47 47 47 46 46 46 45 45 46 46 46 45 45 45 45 45 44 44 45 45 44 44
50 50 50 50 49 49 49 49 49 49 49 50 50 50 50 50 49 49 49 50 50 49 49 49 49 50 50 50 50 50 49 49 48 47 47 47 47 47 47 47 47 47 47 47 47 47 47 46 47 46 46 46 45 45 45 45 46 45 45 45 45 44 44 44 44 44 44 44 43
50 50 50 49 49 49 49 49 49 49 49 49 49 49 49 49 49 49 49 49 49 49 49 49 49 49 50 50 49 49 49 49 48 47 46 46 47 47 47 47 47 47 47 46 46 46 46 46 46 46 46 45 45 45 45 45 45 45 45 45 45 44 44 44 44 44 44 43 43
49 49 49 49 49 49 49 49 49 49 49 49 48 48 48 48 48 48 48 48 48 49 49 49 49 49 49 49 49 49 48 48 47 47 46 47 46 46 46 46 47 46 46 46 46 46 46 46 46 45 45 45 45 45 45 45 45 45 45 45 44 44 44 43 44 43 43 43 42
49 49 49 49 49 49 49 49 49 49 49 48 48 47 47 48 48 48 48 48 48 48 48 48 48 48 48 48 48 48 48 47 47 47 46 46 46 46 46 46 46 46 46 45 45 45 45 45 45 45 45 45 44 44 44 44 44 44 44 44 44 44 44 44 44 43 43 42 42
49 49 49 49 49 49 49 49 49 48 48 48 47 47 47 47 47 47 48 48 48 48 48 48 47 47 47 47 47 47 47 47 47 46 46 46 46 46 46 46 45 45 45 44 44 45 45 45 44 44 43 43 43 43 43 43 43 43 43 43 44 44 44 44 43 43 43 42 42
49 49 49 48 48 48 48 48 48 48 48 47 47 47 48 48 47 47 47 47 47 48 47 47 47 47 47 47 47 47 48 47 46 46 46 46 45 45 45 45 44 44 44 44 44 44 44 44 44 43 43 43 42 42 42 43 42 42 42 42 43 43 43 43 43 43 43 42 42
48 48 48 48 48 48 48 49 48 48 48 47 47 47 48 48 48 47 47 47 48 47 47 46 46 46 47 47 47 48 47 47 46 46 45 45 45 44 44 44 44 43 43 43 43 43 43 43 43 42 42 42 42 42 42 42 42 41 41 41 41 41 42 42 42 43 42 42 42
48 48 48 48 48 48 48 48 48 48 48 47 47 47 47 48 47 47 47 47 47 47 46 46 46 46 46 47 47 47 47 47 46 45 45 45 44 44 44 43 43 43 43 42 43 43 42 42 42 42 42 42 42 42 42 42 41 41 41 40 41 41 41 41 41 42 42 42 42
48 48 48 48 48 48 48 48 48 47 47 47 47 47 47 47 47 47 47 47 46 46 46 46 46 46 46 46 47 47 47 47 46 45 44 44 44 44 43 43 43 42 42 42 42 42 42 41 41 41 41 42 41 41 41 41 41 40 40 40 40 40 40 40 40 41 41 41 41
48 48 48 48 48 48 48 47 47 47 47 47 47 47 47 47 47 47 47 46 46 46 46 46 46 46 46 46 47 47 47 46 45 45 44 44 44 43 43 42 42 42 42 42 42 42 41 41 41 41 41 41 41 41 41 41 40 40 40 40 40 39 39 39 40 40 40 40 40
48 47 47 47 47 47 47 47 47 47 47 46 46 46 47 47 47 47 46 46 46 46 46 46 46 46 46 46 47 47 46 46 45 44 44 44 43 43 43 42 42 42 42 42 42 41 41 41 41 41 41 41 41 41 41 41 40 40 40 39 39 39 39 39 39 39 39 39 39
47 47 47 47 47 47 47 47 47 47 46 46 46 46 46 46 46 46 46 45 46 46 46 46 46 46 46 46 46 46 46 45 45 44 44 44 43 43 43 42 42 42 42 42 41 41 41 41 41 40 40 40 40 40 41 40 40 40 39 39 39 39 39 39 39 39 39 39 39
47 47 47 47 47 46 46 46 46 46 46 46 46 46 46 46 46 46 46 45 46 46 46 45 45 45 46 46 46 46 45 45 45 44 44 44 43 43 43 43 42 42 42 42 41 41 41 41 41 40 40 39 40 40 40 40 40 39 39 39 39 39 39 39 39 39 39 39 39
46 46 46 46 46 46 46 46 46 46 46 46 46 46 46 46 46 46 46 46 45 45 45 45 45 45 45 46 46 46 45 45 45 44 44 44 44 44 44 43 43 42 42 42 41 41 40 40 40 40 40 39 39 39 39 39 39 39 39 39 39 38 38 39 39 39 39 39 39
46 46 46 46 46 46 46 46 46 46 46 46 46 46 46 46 45 45 46 46 45 45 45 45 45 45 45 45 45 45 45 44 44 44 44 44 44 44 44 44 43 43 42 41 41 40 40 40 40 40 40 39 39 39 39 39 39 39 39 38 38 38 38 38 39 39 39 39 39
46 46 45 45 45 45 45 45 45 45 46 46 46 46 46 46 45 45 45 45 45 45 45 45 45 45 45 45 45 45 45 45 44 44 44 44 44 44 44 44 43 43 42 41 41 40 40 40 40 40 39 39 39 39 39 39 39 39 39 38 38 38 38 38 38 38 39 39 39
45 45 45 45 45 45 45 45 45 45 46 46 46 46 45 46 45 45 45 45 45 45 45 45 45 45 45 45 44 45 45 45 44 44 44 44 44 44 43 43 44 43 42 42 41 41 40 40 40 39 39 39 39 39 39 39 39 39 39 39 38 38 38 38 38 38 38 39 40
45 45 45 45 45 45 45 45 45 45 45 45 45 45 45 45 45 45 45 45 45 45 45 45 45 44 44 44 44 44 44 44 44 44 44 44 44 43 43 43 43 43 43 42 41 41 40 40 40 40 39 39 39 39 39 39 39 39 39 40 39 39 38 38 38 38 38 39 39
45 45 45 45 45 45 46 46 46 46 45 45 45 45 45 45 45 45 45 45 45 45 45 45 44 44 43 43 43 43 43 43 43 43 43 43 43 43 43 43 43 43 43 42 42 41 41 41 40 40 40 39 39 39 39 40 40 40 40 40 39 39 39 38 38 38 38 38 39
45 45 45 46 46 46 46 46 46 45 45 45 45 45 44 44 44 45 45 45 45 45 44 44 44 43 43 42 42 42 42 42 42 42 42 42 42 42 42 42 42 42 42 42 42 42 41 41 40 40 40 39 39 39 39 40 40 40 40 40 39 39 39 39 39 38 38 38 39
45 45 45 46 46 46 46 45 45 45 45 45 45 44 44 44 44 44 44 44 44 44 44 44 44 44 44 43 42 42 41 41 41 41 41 41 41 41 41 41 41 42 42 42 44 45 44 43 41 40 40 39 39 39 39 40 40 40 40 40 40 40 39 39 39 39 39 39 40
45 46 46 46 46 45 45 45 45 45 45 44 44 44 44 44 44 44 44 44 44 44 44 44 45 45 45 45 44 42 41 40 40 40 40 40 40 40 41 41 41 41 42 44 48 49 49 48 45 42 40 40 40 40 40 40 40 41 41 41 41 40 40 40 40 40 40 40 40
46 46 46 46 45 45 45 45 45 44 44 44 44 44 44 44 44 44 44 44 44 44 44 44 44 45 45 44 44 43 42 41 40 40 40 39 39 40 40 41 41 41 43 47 49 50 50 50 49 46 43 39 39 40 41 41 40 40 40 40 40 40 40 40 40 40 40 41 40
46 45 45 45 45 45 45 45 44 44 44 44 44 44 44 44 43 43 43 43 44 43 43 42 43 43 44 43 43 43 42 41 40 40 39 39 39 39 40 40 41 42 44 49 50 50 50 50 50 49 46 41 39 39 39 40 39 39 39 39 39 39 39 39 39 39 40 40 40
45 45 45 45 45 44 44 44 44 44 44 44 44 44 44 44 43 43 42 42 42 42 41 41 42 42 42 42 42 42 42 41 41 40 40 39 39 39 40 40 41 43 46 50 50 50 50 50 50 50 48 44 40 38 38 38 38 38 39 39 39 39 39 39 39 39 39 39 39
45 45 45 44 44 44 44 44 44 43 43 44 44 44 44 43 43 42 41 40 40 41 41 41 42 42 41 41 41 41 41 41 41 40 40 39 39 39 40 41 41 44 48 50 50 50 50 50 50 50 49 47 42 40 38 38 38 38 39 40 40 39 39 38 38 38 38 38 39
45 45 44 44 44 44 44 43 43 44 44 44 44 43 43 42 41 41 40 40 40 40 41 41 41 41 40 40 40 40 41 41 41 40 40 39 39 39 40 41 41 44 47 50 50 50 50 50 50 50 49 48 44 40 38 38 38 39 39 40 39 39 39 38 38 38 38 38 38
45 45 44 44 44 43 43 43 44 44 44 43 43 42 41 40 40 40 40 39 40 40 41 40 40 39 39 40 40 40 40 40 40 40 40 39 39 40 40 40 41 43 47 50 50 50 50 50 50 49 49 49 45 41 39 39 39 39 39 39 39 38 38 39 38 38 37 37 38
45 44 44 44 43 43 43 43 43 43 43 43 42 41 40 40 40 40 40 40 40 40 40 40 39 39 39 39 39 39 39 39 40 40 40 40 39 39 39 40 41 43 47 49 49 50 50 49 49 49 49 48 45 41 39 40 40 39 38 38 37 37 38 39 38 38 37 37 38
44 44 44 44 43 43 43 43 43 43 42 42 41 40 40 39 39 39 39 39 39 39 39 39 38 38 38 39 39 39 39 39 39 40 40 40 40 39 39 40 40 43 47 49 49 49 49 49 49 48 48 47 43 41 39 39 40 39 38 38 38 37 37 37 37 38 38 38 39
44 44 44 44 43 43 43 43 43 42 41 40 40 39 39 38 38 38 39 40 39 39 39 38 38 38 38 38 38 38 39 40 39 39 39 39 39 39 39 39 40 43 47 49 49 49 49 49 48 48 47 46 42 39 38 38 39 39 39 38 38 38 37 36 37 38 38 39 40
44 44 43 43 43 43 43 43 42 41 40 39 39 39 39 38 38 39 39 40 40 39 38 38 38 38 38 38 38 38 39 39 39 38 38 38 39 39 39 39 40 43 47 49 49 49 49 49 48 48 46 44 41 39 39 38 38 38 38 38 38 38 37 37 37 38 39 40 41
44 43 43 43 43 43 43 42 41 40 39 39 38 38 38 38 38 39 39 41 40 39 38 38 38 38 37 37 38 38 38 38 38 38 38 38 38 38 38 38 39 42 46 48 49 49 49 49 48 47 45 42 40 39 39 39 39 38 38 38 38 38 38 38 38 39 40 40 41
44 43 43 43 43 43 42 41 40 39 38 38 38 38 38 38 38 39 39 40 39 38 38 38 38 37 37 37 37 37 37 37 38 37 37 38 38 38 38 38 38 41 44 48 48 49 49 49 48 47 44 41 39 39 39 39 39 38 38 38 38 38 38 38 39 39 40 40 42
44 43 43 43 43 42 41 40 39 38 37 37 38 38 38 38 38 39 39 40 38 38 38 38 37 37 37 37 37 36 36 37 37 37 37 37 38 38 38 38 38 40 43 47 48 49 49 49 49 47 45 40 39 38 39 38 38 38 38 38 38 38 38 39 39 39 40 40 43
44 43 43 43 42 41 40 39 38 37 37 37 37 38 38 38 38 39 39 40 39 38 38 38 38 38 38 38 37 37 36 37 37 37 37 36 38 39 40 37 38 39 42 46 48 48 49 49 49 48 45 41 39 38 38 38 38 37 37 38 38 38 38 38 39 40 40 40 43
44 43 43 42 41 40 39 38 37 37 37 37 37 37 38 39 39 40 40 40 39 39 38 38 38 38 39 40 38 37 36 36 37 37 37 37 39 41 41 38 38 39 42 45 47 48 48 49 49 48 46 42 39 39 39 38 37 37 37 37 38 38 38 38 39 39 39 39 41
44 43 43 42 40 39 38 37 37 38 38 38 38 38 39 40 40 39 39 39 39 39 39 39 39 39 39 40 38 37 36 37 37 37 37 38 39 40 41 38 38 39 40 44 46 48 48 49 49 49 47 43 40 39 39 38 38 37 37 37 37 37 38 37 38 39 39 39 39
MSLP
1019.02 1018.94 1018.82 1018.66 1018.62 1018.50 1018.38 1018.22 1018.10 1018.02 1017.90 1017.78 1017.66 1017.54 1017.42 1017.30 1017.18 1017.06 1016.94 1016.78 1016.58 1016.50 1016.46 1016.38 1016.26 1016.10 1015.90 1015.70 1015.54 1015.42 1015.34 1015.26 1015.14 1014.98 1014.82 1014.66 1014.46 1014.26 1014.02 1013.78 1013.54 1013.30 1013.06 1012.78 1012.54 1012.26 1011.94 1011.66 1011.38 1011.14 1010.98 1010.82 1010.70 1010.54 1010.34 1010.10 1009.86 1009.58 1009.26 1008.98 1008.78 1008.58 1008.38 1008.18 1007.98 1007.78 1007.54 1007.34 1007.18
1019.14 1019.02 1018.94 1018.82 1018.70 1018.58 1018.46 1018.34 1018.26 1018.14 1018.02 1017.94 1017.82 1017.66 1017.58 1017.50 1017.38 1017.26 1017.10 1016.94 1016.82 1016.78 1016.66 1016.54 1016.38 1016.26 1016.06 1015.86 1015.70 1015.58 1015.50 1015.38 1015.30 1015.14 1014.98 1014.78 1014.54 1014.38 1014.14 1013.94 1013.70 1013.46 1013.18 1012.94 1012.70 1012.46 1012.18 1011.90 1011.66 1011.42 1011.26 1011.06 1010.90 1010.70 1010.54 1010.30 1010.10 1009.82 1009.54 1009.30 1009.10 1008.86 1008.66 1008.38 1008.18 1007.94 1007.70 1007.50 1007.34
1019.26 1019.10 1019.02 1018.94 1018.82 1018.66 1018.54 1018.46 1018.38 1018.26 1018.14 1018.06 1017.94 1017.86 1017.78 1017.66 1017.54 1017.42 1017.26 1017.14 1017.02 1016.94 1016.82 1016.70 1016.54 1016.38 1016.22 1016.02 1015.86 1015.78 1015.66 1015.54 1015.42 1015.30 1015.10 1014.90 1014.66 1014.50 1014.30 1014.10 1013.86 1013.62 1013.38 1013.10 1012.90 1012.66 1012.42 1012.14 1011.90 1011.66 1011.46 1011.26 1011.10 1010.86 1010.66 1010.46 1010.26 1010.02 1009.78 1009.54 1009.34 1009.10 1008.90 1008.62 1008.38 1008.14 1007.90 1007.66 1007.46
1019.34 1019.22 1019.10 1019.02 1018.90 1018.82 1018.70 1018.62 1018.54 1018.42 1018.30 1018.22 1018.10 1018.02 1017.94 1017.82 1017.74 1017.62 1017.42 1017.26 1017.14 1017.06 1016.98 1016.86 1016.66 1016.50 1016.34 1016.14 1016.02 1015.90 1015.82 1015.70 1015.58 1015.42 1015.26 1015.02 1014.82 1014.66 1014.46 1014.26 1014.02 1013.82 1013.54 1013.34 1013.06 1012.82 1012.62 1012.38 1012.10 1011.94 1011.70 1011.54 1011.26 1011.10 1010.90 1010.66 1010.38 1010.18 1009.98 1009.82 1009.58 1009.38 1009.14 1008.94 1008.66 1008.38 1008.14 1007.94 1007.66
1019.42 1019.38 1019.26 1019.14 1019.06 1018.98 1018.86 1018.78 1018.66 1018.58 1018.46 1018.38 1018.26 1018.18 1018.06 1017.94 1017.86 1017.74 1017.54 1017.38 1017.26 1017.22 1017.14 1017.02 1016.86 1016.66 1016.50 1016.34 1016.18 1016.02 1015.94 1015.82 1015.66 1015.54 1015.34 1015.14 1014.98 1014.82 1014.62 1014.46 1014.26 1014.02 1013.82 1013.54 1013.30 1013.06 1012.82 1012.58 1012.34 1012.14 1011.98 1011.78 1011.54 1011.38 1011.22 1010.94 1010.62 1010.38 1010.14 1009.94 1009.82 1009.62 1009.38 1009.14 1008.90 1008.66 1008.46 1008.22 1007.94
1019.54 1019.46 1019.38 1019.26 1019.18 1019.10 1018.98 1018.90 1018.82 1018.74 1018.66 1018.54 1018.46 1018.34 1018.22 1018.10 1017.98 1017.82 1017.66 1017.54 1017.46 1017.38 1017.26 1017.14 1017.02 1016.82 1016.66 1016.50 1016.34 1016.22 1016.10 1015.94 1015.82 1015.66 1015.46 1015.26 1015.10 1014.94 1014.78 1014.58 1014.38 1014.22 1013.98 1013.78 1013.54 1013.30 1013.10 1012.82 1012.62 1012.42 1012.26 1012.06 1011.86 1011.74 1011.54 1011.18 1010.86 1010.62 1010.38 1010.14 1009.94 1009.78 1009.58 1009.38 1009.18 1008.94 1008.70 1008.46 1008.18
1019.70 1019.58 1019.46 1019.38 1019.26 1019.18 1019.10 1019.02 1018.98 1018.86 1018.78 1018.66 1018.58 1018.46 1018.38 1018.26 1018.10 1017.94 1017.82 1017.66 1017.58 1017.54 1017.38 1017.30 1017.14 1016.98 1016.82 1016.66 1016.54 1016.38 1016.26 1016.10 1015.94 1015.78 1015.62 1015.46 1015.26 1015.10 1014.98 1014.82 1014.62 1014.46 1014.26 1014.06 1013.78 1013.54 1013.34 1013.10 1012.94 1012.78 1012.58 1012.38 1012.18 1012.02 1011.82 1011.54 1011.18 1010.86 1010.62 1010.38 1010.22 1010.02 1009.82 1009.62 1009.42 1009.22 1008.98 1008.74 1008.46
1019.82 1019.70 1019.58 1019.50 1019.42 1019.30 1019.22 1019.14 1019.10 1018.98 1018.90 1018.82 1018.70 1018.58 1018.50 1018.38 1018.26 1018.10 1017.94 1017.82 1017.78 1017.74 1017.66 1017.54 1017.38 1017.22 1017.06 1016.86 1016.70 1016.54 1016.38 1016.26 1016.10 1015.94 1015.78 1015.62 1015.42 1015.30 1015.14 1015.02 1014.82 1014.66 1014.50 1014.26 1014.06 1013.82 1013.62 1013.38 1013.26 1013.10 1012.94 1012.70 1012.54 1012.38 1012.18 1011.86 1011.54 1011.26 1010.98 1010.70 1010.54 1010.34 1010.10 1009.90 1009.66 1009.42 1009.18 1008.98 1008.66
1019.86 1019.78 1019.66 1019.58 1019.50 1019.42 1019.34 1019.26 1019.14 1019.10 1018.98 1018.90 1018.82 1018.70 1018.58 1018.50 1018.38 1018.26 1018.10 1018.02 1018.02 1017.94 1017.86 1017.70 1017.54 1017.38 1017.26 1017.06 1016.90 1016.70 1016.58 1016.46 1016.26 1016.10 1015.94 1015.78 1015.66 1015.50 1015.34 1015.18 1015.06 1014.90 1014.74 1014.54 1014.34 1014.10 1013.90 1013.74 1013.62 1013.46 1013.26 1013.10 1012.98 1012.78 1012.54 1012.26 1011.90 1011.62 1011.38 1011.14 1010.98 1010.74 1010.50 1010.26 1009.94 1009.66 1009.38 1009.14 1008.94
1019.94 1019.86 1019.78 1019.66 1019.58 1019.46 1019.38 1019.34 1019.26 1019.14 1019.10 1018.98 1018.94 1018.82 1018.70 1018.58 1018.50 1018.38 1018.34 1018.30 1018.26 1018.14 1018.02 1017.90 1017.74 1017.54 1017.38 1017.18 1017.06 1016.94 1016.82 1016.66 1016.54 1016.34 1016.18 1016.02 1015.86 1015.74 1015.58 1015.42 1015.26 1015.14 1014.98 1014.82 1014.62 1014.38 1014.22 1014.06 1013.94 1013.82 1013.62 1013.42 1013.26 1013.06 1012.82 1012.54 1012.26 1011.98 1011.78 1011.58 1011.38 1011.14 1010.82 1010.54 1010.26 1009.98 1009.70 1009.46 1009.26
1020.06 1019.94 1019.86 1019.78 1019.66 1019.54 1019.46 1019.38 1019.34 1019.26 1019.14 1019.10 1019.02 1018.94 1018.82 1018.74 1018.66 1018.62 1018.54 1018.54 1018.38 1018.30 1018.18 1018.10 1017.94 1017.70 1017.54 1017.38 1017.26 1017.14 1017.02 1016.90 1016.74 1016.54 1016.38 1016.26 1016.10 1015.98 1015.82 1015.70 1015.58 1015.42 1015.26 1015.10 1014.90 1014.70 1014.50 1014.34 1014.22 1014.06 1013.86 1013.70 1013.50 1013.26 1013.06 1012.82 1012.54 1012.30 1012.10 1011.94 1011.70 1011.42 1011.14 1010.90 1010.66 1010.38 1010.10 1009.86 1009.62
1020.14 1020.06 1019.94 1019.86 1019.78 1019.66 1019.54 1019.46 1019.42 1019.34 1019.26 1019.18 1019.14 1019.06 1018.98 1018.94 1018.82 1018.82 1018.74 1018.66 1018.54 1018.42 1018.34 1018.22 1018.06 1017.90 1017.74 1017.62 1017.46 1017.34 1017.22 1017.10 1016.98 1016.78 1016.62 1016.50 1016.34 1016.22 1016.10 1015.94 1015.82 1015.66 1015.54 1015.34 1015.18 1014.98 1014.82 1014.62 1014.42 1014.26 1014.10 1013.90 1013.66 1013.50 1013.30 1013.06 1012.82 1012.54 1012.34 1012.14 1011.94 1011.70 1011.46 1011.26 1011.02 1010.82 1010.58 1010.26 1009.94
1020.26 1020.14 1020.06 1019.94 1019.82 1019.74 1019.66 1019.58 1019.54 1019.46 1019.38 1019.30 1019.26 1019.22 1019.10 1019.10 1019.02 1018.94 1018.86 1018.74 1018.66 1018.54 1018.46 1018.34 1018.18 1018.02 1017.90 1017.78 1017.66 1017.54 1017.38 1017.26 1017.10 1016.98 1016.82 1016.70 1016.54 1016.38 1016.26 1016.14 1015.98 1015.86 1015.70 1015.54 1015.38 1015.18 1015.02 1014.82 1014.62 1014.42 1014.26 1014.10 1013.90 1013.70 1013.50 1013.26 1013.02 1012.82 1012.58 1012.38 1012.14 1011.94 1011.78 1011.58 1011.38 1011.14 1010.86 1010.54 1010.26
1020.34 1020.26 1020.18 1020.10 1019.94 1019.82 1019.78 1019.66 1019.62 1019.58 1019.54 1019.46 1019.38 1019.38 1019.30 1019.26 1019.18 1019.10 1018.98 1018.90 1018.78 1018.66 1018.54 1018.46 1018.30 1018.14 1018.06 1017.94 1017.78 1017.66 1017.50 1017.38 1017.26 1017.10 1016.98 1016.82 1016.70 1016.54 1016.38 1016.26 1016.10 1015.94 1015.82 1015.66 1015.54 1015.34 1015.14 1014.98 1014.82 1014.62 1014.42 1014.26 1014.10 1013.86 1013.66 1013.46 1013.26 1013.06 1012.86 1012.66 1012.46 1012.26 1012.06 1011.86 1011.66 1011.38 1011.10 1010.82 1010.54
1020.42 1020.38 1020.30 1020.22 1020.10 1019.98 1019.90 1019.82 1019.74 1019.70 1019.66 1019.62 1019.58 1019.54 1019.50 1019.38 1019.30 1019.22 1019.10 1019.02 1018.94 1018.82 1018.70 1018.58 1018.42 1018.30 1018.18 1018.02 1017.90 1017.78 1017.62 1017.50 1017.38 1017.26 1017.10 1016.94 1016.82 1016.66 1016.54 1016.38 1016.22 1016.06 1015.94 1015.78 1015.62 1015.46 1015.26 1015.10 1014.98 1014.78 1014.58 1014.38 1014.22 1013.98 1013.78 1013.54 1013.38 1013.26 1013.06 1012.90 1012.70 1012.50 1012.26 1012.10 1011.82 1011.62 1011.38 1011.10 1010.86
1020.58 1020.54 1020.42 1020.34 1020.26 1020.18 1020.10 1019.98 1019.94 1019.90 1019.82 1019.78 1019.78 1019.70 1019.62 1019.54 1019.46 1019.34 1019.26 1019.14 1019.02 1018.94 1018.82 1018.70 1018.58 1018.46 1018.30 1018.14 1017.98 1017.86 1017.74 1017.58 1017.46 1017.34 1017.18 1017.06 1016.90 1016.78 1016.62 1016.42 1016.26 1016.14 1016.02 1015.90 1015.70 1015.54 1015.38 1015.26 1015.10 1014.94 1014.74 1014.54 1014.34 1014.10 1013.90 1013.66 1013.50 1013.34 1013.14 1012.98 1012.82 1012.66 1012.46 1012.26 1012.02 1011.82 1011.58 1011.34 1011.10
1020.70 1020.66 1020.58 1020.54 1020.42 1020.34 1020.26 1020.18 1020.10 1020.06 1019.98 1019.94 1019.90 1019.82 1019.78 1019.70 1019.58 1019.50 1019.38 1019.30 1019.18 1019.10 1018.98 1018.86 1018.74 1018.58 1018.42 1018.30 1018.10 1017.98 1017.86 1017.70 1017.54 1017.46 1017.34 1017.26 1017.06 1016.90 1016.74 1016.54 1016.42 1016.26 1016.10 1015.98 1015.82 1015.66 1015.50 1015.34 1015.18 1015.02 1014.82 1014.66 1014.42 1014.26 1014.02 1013.82 1013.62 1013.42 1013.26 1013.10 1012.90 1012.74 1012.54 1012.38 1012.14 1011.94 1011.74 1011.54 1011.30
1020.82 1020.82 1020.74 1020.66 1020.58 1020.54 1020.42 1020.38 1020.30 1020.26 1020.18 1020.10 1020.06 1019.94 1019.90 1019.82 1019.74 1019.66 1019.54 1019.46 1019.34 1019.26 1019.14 1019.02 1018.90 1018.78 1018.62 1018.46 1018.34 1018.14 1018.02 1017.90 1017.74 1017.62 1017.54 1017.38 1017.26 1017.06 1016.90 1016.70 1016.54 1016.38 1016.26 1016.10 1015.94 1015.82 1015.66 1015.46 1015.30 1015.10 1014.94 1014.70 1014.54 1014.34 1014.10 1013.94 1013.74 1013.54 1013.34 1013.14 1012.98 1012.82 1012.62 1012.46 1012.26 1012.10 1011.90 1011.66 1011.50
1021.02 1020.98 1020.90 1020.82 1020.74 1020.66 1020.62 1020.54 1020.50 1020.42 1020.34 1020.26 1020.22 1020.14 1020.06 1019.98 1019.94 1019.86 1019.74 1019.62 1019.54 1019.42 1019.30 1019.18 1019.06 1018.94 1018.82 1018.66 1018.54 1018.38 1018.22 1018.10 1017.98 1017.86 1017.70 1017.54 1017.38 1017.26 1017.06 1016.86 1016.66 1016.50 1016.34 1016.18 1016.02 1015.86 1015.74 1015.58 1015.38 1015.26 1015.06 1014.82 1014.62 1014.38 1014.22 1014.02 1013.82 1013.62 1013.42 1013.26 1013.06 1012.86 1012.70 1012.54 1012.38 1012.18 1012.02 1011.86 1011.66
1021.14 1021.10 1021.06 1020.98 1020.94 1020.86 1020.78 1020.70 1020.66 1020.58 1020.50 1020.42 1020.38 1020.30 1020.26 1020.18 1020.10 1020.02 1019.90 1019.82 1019.70 1019.58 1019.46 1019.34 1019.22 1019.06 1018.94 1018.82 1018.66 1018.54 1018.38 1018.30 1018.18 1018.02 1017.90 1017.70 1017.54 1017.38 1017.22 1017.02 1016.82 1016.62 1016.42 1016.26 1016.10 1015.94 1015.82 1015.66 1015.54 1015.38 1015.18 1014.98 1014.74 1014.54 1014.30 1014.10 1013.94 1013.74 1013.54 1013.38 1013.18 1012.98 1012.82 1012.66 1012.46 1012.26 1012.10 1011.94 1011.78
1021.30 1021.26 1021.22 1021.14 1021.06 1020.98 1020.94 1020.86 1020.82 1020.74 1020.66 1020.62 1020.54 1020.50 1020.42 1020.38 1020.26 1020.14 1020.06 1019.94 1019.82 1019.70 1019.58 1019.42 1019.30 1019.18 1019.06 1018.94 1018.82 1018.66 1018.58 1018.50 1018.34 1018.22 1018.06 1017.86 1017.70 1017.54 1017.38 1017.18 1016.98 1016.74 1016.54 1016.38 1016.18 1016.02 1015.90 1015.78 1015.62 1015.46 1015.26 1015.10 1014.86 1014.66 1014.46 1014.26 1014.06 1013.86 1013.66 1013.50 1013.34 1013.14 1012.98 1012.78 1012.58 1012.38 1012.22 1012.10 1011.90
1021.46 1021.42 1021.34 1021.26 1021.22 1021.10 1021.10 1021.02 1020.98 1020.90 1020.82 1020.82 1020.74 1020.66 1020.58 1020.50 1020.38 1020.30 1020.22 1020.06 1019.94 1019.82 1019.66 1019.54 1019.42 1019.26 1019.14 1019.02 1018.98 1018.86 1018.74 1018.62 1018.50 1018.38 1018.22 1018.06 1017.90 1017.70 1017.54 1017.30 1017.10 1016.86 1016.62 1016.38 1016.22 1016.06 1015.94 1015.82 1015.66 1015.54 1015.38 1015.22 1015.02 1014.82 1014.62 1014.42 1014.26 1014.06 1013.86 1013.66 1013.50 1013.26 1013.10 1012.94 1012.74 1012.54 1012.38 1012.22 1012.06
1021.58 1021.54 1021.46 1021.38 1021.34 1021.26 1021.22 1021.14 1021.10 1021.06 1020.98 1020.94 1020.90 1020.82 1020.74 1020.66 1020.54 1020.42 1020.26 1020.14 1019.98 1019.82 1019.74 1019.62 1019.50 1019.38 1019.26 1019.14 1019.10 1018.98 1018.82 1018.70 1018.62 1018.50 1018.34 1018.18 1018.02 1017.82 1017.66 1017.38 1017.22 1016.98 1016.78 1016.54 1016.34 1016.14 1015.98 1015.86 1015.74 1015.62 1015.50 1015.34 1015.14 1014.98 1014.78 1014.62 1014.42 1014.22 1014.02 1013.82 1013.62 1013.42 1013.26 1013.10 1012.90 1012.66 1012.50 1012.34 1012.18
1021.66 1021.62 1021.54 1021.54 1021.46 1021.38 1021.34 1021.26 1021.22 1021.14 1021.10 1021.06 1021.06 1020.98 1020.90 1020.82 1020.66 1020.54 1020.38 1020.26 1020.10 1019.94 1019.82 1019.70 1019.58 1019.46 1019.38 1019.26 1019.14 1019.06 1018.98 1018.82 1018.74 1018.58 1018.46 1018.30 1018.10 1017.94 1017.74 1017.54 1017.34 1017.10 1016.90 1016.70 1016.42 1016.26 1016.06 1015.94 1015.82 1015.70 1015.58 1015.46 1015.26 1015.10 1014.98 1014.78 1014.58 1014.38 1014.22 1014.02 1013.82 1013.66 1013.46 1013.26 1013.10 1012.86 1012.66 1012.50 1012.34
1021.78 1021.70 1021.66 1021.62 1021.54 1021.54 1021.50 1021.42 1021.34 1021.26 1021.26 1021.22 1021.18 1021.10 1021.06 1020.98 1020.82 1020.66 1020.54 1020.34 1020.18 1020.02 1019.94 1019.82 1019.66 1019.54 1019.42 1019.34 1019.22 1019.10 1019.02 1018.94 1018.82 1018.70 1018.54 1018.38 1018.26 1018.06 1017.82 1017.66 1017.42 1017.26 1017.02 1016.74 1016.46 1016.26 1016.06 1015.94 1015.82 1015.78 1015.70 1015.58 1015.38 1015.26 1015.06 1014.90 1014.78 1014.62 1014.42 1014.26 1014.06 1013.82 1013.66 1013.42 1013.26 1013.10 1012.90 1012.70 1012.54
1021.82 1021.82 1021.74 1021.74 1021.70 1021.66 1021.62 1021.54 1021.50 1021.46 1021.38 1021.38 1021.30 1021.22 1021.14 1021.10 1020.98 1020.82 1020.66 1020.50 1020.34 1020.18 1020.06 1019.94 1019.82 1019.70 1019.62 1019.46 1019.34 1019.22 1019.10 1018.98 1018.94 1018.82 1018.70 1018.54 1018.38 1018.18 1017.94 1017.78 1017.54 1017.34 1017.10 1016.78 1016.54 1016.34 1016.14 1015.98 1015.82 1015.78 1015.74 1015.66 1015.54 1015.38 1015.18 1015.02 1014.90 1014.78 1014.62 1014.50 1014.30 1014.10 1013.94 1013.70 1013.50 1013.30 1013.10 1012.94 1012.82
1021.94 1021.90 1021.90 1021.90 1021.82 1021.82 1021.74 1021.70 1021.66 1021.58 1021.54 1021.50 1021.42 1021.34 1021.26 1021.22 1021.10 1020.94 1020.78 1020.66 1020.50 1020.38 1020.26 1020.14 1020.02 1019.90 1019.78 1019.66 1019.50 1019.38 1019.22 1019.10 1019.02 1018.94 1018.82 1018.70 1018.54 1018.34 1018.14 1017.94 1017.66 1017.42 1017.14 1016.82 1016.58 1016.38 1016.22 1016.06 1015.90 1015.78 1015.74 1015.74 1015.62 1015.50 1015.38 1015.22 1015.06 1014.90 1014.74 1014.62 1014.46 1014.34 1014.18 1014.02 1013.82 1013.62 1013.38 1013.22 1013.02
1022.06 1022.06 1022.06 1022.02 1021.94 1021.90 1021.90 1021.86 1021.82 1021.74 1021.66 1021.62 1021.58 1021.50 1021.38 1021.26 1021.14 1021.06 1020.94 1020.78 1020.66 1020.54 1020.38 1020.30 1020.22 1020.10 1019.94 1019.82 1019.70 1019.58 1019.42 1019.30 1019.18 1019.10 1018.98 1018.82 1018.66 1018.54 1018.30 1018.10 1017.82 1017.54 1017.22 1016.90 1016.70 1016.54 1016.34 1016.14 1015.98 1015.86 1015.78 1015.74 1015.74 1015.66 1015.54 1015.38 1015.22 1015.02 1014.86 1014.74 1014.62 1014.54 1014.42 1014.30 1014.14 1013.94 1013.74 1013.54 1013.30
1022.22 1022.22 1022.18 1022.14 1022.10 1022.06 1022.02 1021.98 1021.94 1021.90 1021.82 1021.78 1021.70 1021.62 1021.50 1021.38 1021.26 1021.10 1021.02 1020.90 1020.78 1020.66 1020.58 1020.54 1020.42 1020.26 1020.14 1020.02 1019.94 1019.82 1019.62 1019.46 1019.34 1019.22 1019.10 1018.94 1018.82 1018.66 1018.46 1018.26 1018.02 1017.70 1017.34 1017.02 1016.82 1016.62 1016.42 1016.26 1016.10 1015.94 1015.82 1015.82 1015.82 1015.74 1015.62 1015.46 1015.34 1015.18 1015.02 1014.86 1014.78 1014.66 1014.58 1014.50 1014.38 1014.22 1014.02 1013.82 1013.62
1022.38 1022.34 1022.30 1022.26 1022.26 1022.18 1022.14 1022.10 1022.10 1022.06 1022.02 1021.94 1021.82 1021.70 1021.58 1021.46 1021.34 1021.22 1021.10 1021.02 1020.94 1020.86 1020.82 1020.74 1020.62 1020.46 1020.34 1020.26 1020.10 1019.94 1019.82 1019.66 1019.54 1019.38 1019.26 1019.06 1018.98 1018.82 1018.62 1018.38 1018.14 1017.86 1017.54 1017.18 1016.98 1016.78 1016.58 1016.38 1016.26 1016.10 1015.94 1015.90 1015.90 1015.82 1015.70 1015.58 1015.50 1015.38 1015.22 1015.02 1014.94 1014.82 1014.74 1014.66 1014.58 1014.42 1014.26 1014.06 1013.82
1022.50 1022.46 1022.42 1022.38 1022.38 1022.34 1022.30 1022.30 1022.26 1022.22 1022.14 1022.02 1021.94 1021.82 1021.70 1021.62 1021.50 1021.38 1021.26 1021.22 1021.10 1021.06 1020.98 1020.82 1020.74 1020.66 1020.54 1020.42 1020.30 1020.18 1020.02 1019.90 1019.70 1019.54 1019.38 1019.26 1019.10 1018.98 1018.82 1018.62 1018.38 1018.06 1017.70 1017.38 1017.14 1016.98 1016.78 1016.58 1016.38 1016.26 1016.10 1016.02 1015.98 1015.94 1015.86 1015.74 1015.62 1015.50 1015.38 1015.26 1015.10 1014.98 1014.90 1014.82 1014.70 1014.58 1014.46 1014.30 1014.10
1022.62 1022.58 1022.54 1022.54 1022.50 1022.46 1022.42 1022.42 1022.38 1022.30 1022.26 1022.14 1022.06 1021.94 1021.82 1021.74 1021.62 1021.54 1021.42 1021.34 1021.26 1021.18 1021.06 1020.98 1020.86 1020.78 1020.66 1020.54 1020.46 1020.34 1020.22 1020.10 1019.94 1019.78 1019.58 1019.42 1019.30 1019.14 1018.98 1018.78 1018.54 1018.26 1017.90 1017.58 1017.34 1017.10 1016.94 1016.74 1016.58 1016.42 1016.30 1016.18 1016.14 1016.10 1015.98 1015.86 1015.74 1015.66 1015.54 1015.38 1015.26 1015.14 1015.02 1014.94 1014.86 1014.74 1014.62 1014.46 1014.34
1022.70 1022.66 1022.66 1022.62 1022.58 1022.54 1022.54 1022.54 1022.46 1022.38 1022.34 1022.26 1022.14 1022.06 1021.98 1021.86 1021.74 1021.62 1021.54 1021.42 1021.34 1021.26 1021.22 1021.10 1021.02 1020.98 1020.86 1020.78 1020.66 1020.54 1020.38 1020.26 1020.18 1019.98 1019.82 1019.62 1019.46 1019.30 1019.10 1018.94 1018.74 1018.46 1018.10 1017.78 1017.54 1017.26 1017.10 1016.94 1016.82 1016.66 1016.50 1016.38 1016.34 1016.26 1016.18 1016.02 1015.86 1015.74 1015.62 1015.50 1015.38 1015.26 1015.18 1015.10 1014.98 1014.86 1014.78 1014.62 1014.50
1022.82 1022.78 1022.78 1022.74 1022.70 1022.66 1022.66 1022.66 1022.58 1022.54 1022.46 1022.38 1022.26 1022.14 1022.10 1021.98 1021.86 1021.78 1021.66 1021.54 1021.42 1021.38 1021.30 1021.26 1021.18 1021.10 1021.06 1020.98 1020.82 1020.74 1020.66 1020.46 1020.34 1020.14 1019.98 1019.82 1019.62 1019.46 1019.30 1019.14 1018.98 1018.66 1018.30 1017.94 1017.70 1017.50 1017.26 1017.10 1016.98 1016.82 1016.70 1016.62 1016.54 1016.46 1016.30 1016.14 1016.02 1015.90 1015.78 1015.62 1015.50 1015.38 1015.26 1015.18 1015.10 1014.98 1014.90 1014.78 1014.62
1022.98 1022.90 1022.86 1022.82 1022.82 1022.82 1022.78 1022.74 1022.70 1022.66 1022.54 1022.46 1022.38 1022.26 1022.18 1022.10 1021.98 1021.90 1021.78 1021.62 1021.54 1021.50 1021.42 1021.38 1021.26 1021.22 1021.10 1021.02 1020.94 1020.86 1020.74 1020.58 1020.50 1020.34 1020.14 1019.94 1019.78 1019.62 1019.46 1019.30 1019.14 1018.82 1018.50 1018.14 1017.90 1017.66 1017.46 1017.26 1017.10 1016.98 1016.94 1016.82 1016.78 1016.62 1016.46 1016.34 1016.18 1016.06 1015.94 1015.78 1015.66 1015.54 1015.38 1015.30 1015.22 1015.10 1014.98 1014.86 1014.70
1023.10 1023.06 1023.02 1022.98 1022.98 1022.94 1022.90 1022.86 1022.82 1022.74 1022.66 1022.58 1022.50 1022.38 1022.26 1022.18 1022.10 1021.98 1021.90 1021.74 1021.66 1021.58 1021.54 1021.42 1021.34 1021.26 1021.22 1021.10 1020.98 1020.90 1020.82 1020.74 1020.62 1020.46 1020.26 1020.10 1019.90 1019.74 1019.62 1019.50 1019.26 1018.98 1018.66 1018.38 1018.10 1017.86 1017.66 1017.46 1017.30 1017.22 1017.10 1017.06 1016.94 1016.78 1016.62 1016.54 1016.38 1016.26 1016.10 1015.94 1015.82 1015.70 1015.58 1015.46 1015.38 1015.26 1015.10 1014.98 1014.82
1023.26 1023.22 1023.18 1023.14 1023.10 1023.10 1023.02 1022.98 1022.94 1022.86 1022.78 1022.66 1022.62 1022.54 1022.38 1022.30 1022.22 1022.10 1021.94 1021.82 1021.78 1021.70 1021.62 1021.50 1021.42 1021.38 1021.26 1021.22 1021.14 1021.06 1020.98 1020.82 1020.70 1020.54 1020.38 1020.26 1020.06 1019.94 1019.82 1019.66 1019.46 1019.22 1018.90 1018.54 1018.30 1018.06 1017.82 1017.66 1017.50 1017.38 1017.34 1017.26 1017.14 1016.98 1016.82 1016.66 1016.58 1016.42 1016.26 1016.14 1016.06 1015.90 1015.78 1015.66 1015.50 1015.38 1015.26 1015.14 1014.98
1023.38 1023.38 1023.34 1023.30 1023.26 1023.18 1023.14 1023.10 1023.02 1022.98 1022.90 1022.82 1022.70 1022.58 1022.50 1022.38 1022.26 1022.14 1022.02 1021.90 1021.82 1021.82 1021.74 1021.66 1021.54 1021.46 1021.38 1021.30 1021.26 1021.14 1021.02 1020.90 1020.78 1020.66 1020.54 1020.38 1020.26 1020.10 1019.94 1019.82 1019.66 1019.42 1019.14 1018.82 1018.50 1018.26 1018.02 1017.82 1017.66 1017.54 1017.54 1017.50 1017.38 1017.26 1017.10 1016.94 1016.78 1016.62 1016.50 1016.38 1016.26 1016.10 1015.94 1015.82 1015.66 1015.54 1015.42 1015.30 1015.10
1023.54 1023.50 1023.42 1023.38 1023.34 1023.30 1023.26 1023.22 1023.10 1023.06 1022.98 1022.94 1022.82 1022.66 1022.54 1022.46 1022.34 1022.26 1022.10 1021.98 1021.94 1021.90 1021.86 1021.78 1021.66 1021.58 1021.46 1021.38 1021.30 1021.22 1021.10 1020.94 1020.82 1020.70 1020.62 1020.54 1020.38 1020.22 1020.06 1019.94 1019.82 1019.62 1019.34 1019.02 1018.70 1018.46 1018.26 1018.02 1017.82 1017.70 1017.66 1017.66 1017.62 1017.50 1017.34 1017.18 1017.02 1016.86 1016.70 1016.54 1016.38 1016.26 1016.10 1015.98 1015.82 1015.70 1015.58 1015.50 1015.30
1023.62 1023.54 1023.50 1023.42 1023.38 1023.38 1023.34 1023.26 1023.22 1023.14 1023.06 1022.98 1022.90 1022.78 1022.66 1022.54 1022.42 1022.30 1022.18 1022.10 1022.02 1021.94 1021.94 1021.86 1021.78 1021.66 1021.54 1021.42 1021.38 1021.30 1021.18 1021.06 1020.90 1020.82 1020.74 1020.62 1020.50 1020.30 1020.18 1020.10 1019.94 1019.78 1019.54 1019.22 1018.94 1018.66 1018.42 1018.22 1018.02 1017.86 1017.82 1017.82 1017.82 1017.66 1017.54 1017.38 1017.18 1017.02 1016.90 1016.74 1016.58 1016.42 1016.30 1016.14 1016.02 1015.90 1015.78 1015.66 1015.50
1023.66 1023.62 1023.54 1023.50 1023.42 1023.38 1023.38 1023.34 1023.26 1023.18 1023.10 1023.02 1022.98 1022.90 1022.74 1022.62 1022.54 1022.42 1022.30 1022.26 1022.14 1022.06 1022.02 1021.94 1021.86 1021.78 1021.66 1021.54 1021.42 1021.38 1021.26 1021.14 1021.02 1020.94 1020.82 1020.70 1020.58 1020.42 1020.30 1020.22 1020.06 1019.90 1019.66 1019.42 1019.14 1018.86 1018.66 1018.42 1018.22 1018.02 1017.94 1017.94 1017.94 1017.82 1017.66 1017.54 1017.38 1017.22 1017.10 1016.98 1016.86 1016.70 1016.54 1016.38 1016.18 1016.06 1015.94 1015.82 1015.66
Wind_Speed
6 6 6 6 6 5 5 5 5 5 5 5 5 6 6 6 6 7 6 6 6 6 7 7 7 8 10 12 12 12 12 13 14 15 15 15 14 15 15 14 14 14 14 14 14 13 12 12 10 9 8 8 9 9 9 9 11 11 11 11 10 10 11 11 11 12 13 13 10
7 7 7 7 7 6 5 5 5 6 6 5 5 6 6 6 6 7 7 7 6 6 6 7 8 9 11 12 12 11 11 12 14 14 14 14 14 14 14 14 14 15 15 14 13 12 11 11 10 8 7 7 8 9 9 9 10 10 11 12 10 9 9 9 10 11 11 11 11
7 7 7 7 7 7 6 5 6 7 7 6 6 6 6 6 6 6 6 6 6 7 7 7 8 10 11 11 11 10 11 12 13 13 13 12 13 14 14 14 14 15 15 14 13 12 11 11 9 8 7 7 8 9 9 10 10 10 10 11 9 8 8 8 9 9 9 8 10
7 7 7 7 8 8 7 6 7 7 7 6 6 6 6 6 6 6 6 7 7 7 7 8 9 9 10 11 11 11 11 12 13 13 12 12 13 13 14 14 15 15 15 15 14 13 13 12 9 7 8 9 9 9 9 10 11 10 8 8 8 8 8 8 8 8 8 8 10
7 7 7 7 9 8 7 6 8 8 7 6 6 6 6 6 6 6 7 7 6 7 8 10 9 9 10 11 12 12 12 12 13 12 11 12 12 13 14 14 15 15 15 15 15 14 14 13 9 8 8 9 9 9 11 12 11 9 8 7 7 8 8 8 8 8 8 8 9
7 7 7 7 8 8 7 7 8 8 7 6 7 7 7 6 7 7 8 7 7 8 10 11 10 11 11 11 12 12 11 12 11 11 12 12 12 13 14 14 15 15 15 15 15 14 14 12 9 8 9 9 9 11 13 14 11 10 9 8 8 8 9 9 8 8 9 11 12
7 8 8 8 8 8 7 7 7 7 7 7 8 9 9 8 9 9 9 8 7 8 9 10 11 11 11 11 11 11 11 11 11 12 12 12 12 13 14 14 15 15 15 15 15 14 13 11 9 9 9 9 9 12 15 15 13 11 10 10 9 9 9 10 9 9 10 14 15
7 8 8 8 8 8 8 7 7 7 7 7 8 9 10 10 10 10 10 8 8 9 9 9 11 12 12 11 11 11 12 13 12 12 12 12 13 13 14 14 15 15 15 14 14 14 13 10 9 9 9 9 9 11 14 17 16 15 13 12 10 10 10 10 10 10 12 15 17
6 7 8 7 7 7 7 7 7 7 7 7 8 9 9 10 10 10 10 9 9 10 10 10 12 12 12 12 12 12 13 13 13 13 13 13 13 13 14 13 14 14 14 14 14 14 13 10 10 10 9 9 10 11 14 17 18 17 15 13 12 12 12 11 12 13 14 15 16
7 7 7 7 8 7 7 6 7 7 8 8 9 9 9 10 10 10 9 8 9 10 11 11 12 12 12 13 13 13 13 13 12 13 13 13 14 14 14 13 14 14 14 13 13 13 13 11 11 11 11 10 12 13 15 16 17 17 15 12 13 15 16 15 15 15 15 15 16
7 7 7 7 7 7 7 6 6 7 8 8 9 9 9 10 10 10 9 9 10 10 11 11 11 11 11 11 12 13 13 13 12 12 13 14 14 14 14 14 14 14 14 14 12 12 11 10 12 13 13 12 12 13 14 16 16 16 15 13 15 16 17 18 17 15 14 15 16
7 7 7 7 7 7 7 6 6 7 8 9 9 9 9 9 10 10 10 10 10 10 10 10 11 11 10 10 11 12 12 13 12 12 12 13 14 14 14 14 14 14 14 13 12 11 10 11 12 13 14 13 11 11 12 15 15 15 15 15 15 16 16 17 17 15 14 15 16
7 7 7 7 8 7 7 7 6 7 8 9 9 9 8 8 9 10 10 10 10 9 9 9 9 9 9 9 10 11 11 11 11 11 12 12 13 13 13 13 13 13 13 12 11 11 10 11 12 13 13 13 11 10 11 13 13 14 14 15 15 15 15 16 15 15 15 16 16
7 8 8 8 8 8 7 7 6 7 8 9 9 8 8 8 9 9 9 9 9 9 8 8 8 8 8 9 10 10 10 10 10 11 12 12 12 12 12 12 12 12 11 10 11 11 11 11 12 12 12 12 11 11 11 11 12 12 13 13 14 14 14 14 14 14 15 16 16
8 8 9 9 9 8 8 8 7 7 8 9 8 8 8 7 8 8 8 8 9 9 8 8 7 8 8 9 10 10 10 10 10 11 12 12 11 11 11 11 11 11 11 10 10 11 11 11 11 11 11 11 11 11 11 10 10 10 11 11 12 12 13 13 13 13 14 15 15
9 9 9 9 9 9 9 8 7 7 8 8 8 8 7 7 7 7 8 8 8 8 8 8 8 8 8 9 9 9 9 10 11 11 12 11 11 11 11 11 11 11 11 11 10 10 10 10 10 10 10 10 10 10 10 10 10 10 10 10 10 11 11 12 12 12 13 13 14
9 9 9 9 10 10 9 9 7 7 8 8 8 8 7 7 7 7 8 9 8 8 9 9 8 8 9 9 9 9 9 10 11 11 11 12 12 12 12 11 10 10 10 10 10 10 11 10 10 10 10 10 10 10 10 10 9 9 9 9 9 9 10 11 11 11 12 13 13
9 9 9 10 10 10 10 10 9 8 9 9 8 8 8 8 8 8 9 10 9 10 10 10 9 9 9 10 10 9 9 10 10 11 11 12 12 12 12 11 11 10 10 10 10 10 10 11 10 10 10 9 9 9 9 10 9 9 9 9 9 9 9 9 10 10 10 11 12
9 9 9 9 10 10 10 10 9 9 9 9 8 8 9 9 9 9 10 10 10 11 10 10 10 10 10 11 11 10 10 10 11 11 11 11 11 12 12 11 11 10 10 9 9 9 10 10 10 10 10 10 10 10 10 10 10 10 9 9 9 9 9 9 9 9 9 10 11
9 9 9 9 9 9 9 9 9 9 9 9 9 10 10 10 10 10 10 10 10 10 10 10 10 10 11 11 11 11 10 9 11 11 11 11 11 11 11 11 11 10 10 9 9 9 9 10 10 10 11 10 11 11 10 10 10 10 10 9 9 9 9 9 9 9 9 10 10
8 8 8 8 8 8 8 8 8 9 9 9 10 11 11 10 10 10 10 9 9 9 9 9 9 10 10 10 10 10 10 9 10 10 10 10 10 11 10 10 10 10 10 9 9 9 9 9 10 10 11 11 11 11 11 10 11 11 11 10 10 10 10 10 9 9 9 9 10
8 7 7 7 7 8 8 8 8 9 9 10 10 11 10 10 10 9 9 8 8 8 8 8 8 8 9 9 9 9 8 8 8 9 9 9 9 9 10 9 10 10 10 10 9 9 9 9 10 10 11 10 11 11 11 11 11 11 12 12 12 11 11 11 10 10 9 9 9
7 6 6 6 7 8 8 8 8 9 9 10 10 10 10 10 9 9 8 8 7 7 7 6 6 7 7 7 7 7 8 8 8 9 9 9 9 9 9 9 9 10 10 9 9 9 9 9 9 10 10 10 10 11 11 11 11 11 12 13 13 12 12 12 12 11 10 9 9
6 6 6 6 7 8 8 8 9 9 9 10 10 10 10 9 9 9 9 8 8 8 7 6 6 7 7 7 7 7 7 8 9 9 10 10 9 9 9 9 9 9 8 8 11 12 12 9 8 8 9 9 9 9 9 10 10 11 12 13 13 13 13 13 13 13 12 11 10
6 6 7 7 7 8 8 9 9 9 10 9 9 9 9 9 9 9 9 9 9 8 8 8 8 8 8 8 8 7 7 8 9 9 10 10 10 10 9 8 8 8 8 9 16 19 18 14 11 9 8 8 8 8 8 9 10 10 11 12 13 13 14 14 15 14 13 12 11
6 7 7 8 8 9 9 9 10 9 9 9 9 9 9 9 9 9 9 9 9 9 9 9 9 9 9 9 9 8 8 7 8 9 9 10 10 10 10 9 8 7 8 13 19 21 21 20 18 14 10 7 7 8 8 8 9 9 10 10 11 12 14 15 16 15 15 13 12
7 7 8 8 9 9 9 9 9 9 9 9 9 9 9 8 8 9 9 9 9 9 8 8 9 9 9 8 10 10 9 8 8 8 9 9 10 11 11 9 8 8 10 18 21 22 21 21 20 18 14 8 7 7 7 7 8 8 9 9 10 11 13 14 15 15 15 14 13
7 8 8 8 9 9 9 9 9 10 10 9 9 9 8 8 8 8 8 8 8 8 8 8 7 7 7 7 9 10 10 9 8 8 8 9 10 11 11 10 9 11 16 22 23 22 22 21 20 19 17 12 8 6 6 7 7 7 8 8 9 10 11 12 13 14 14 14 13
8 8 8 8 9 9 9 9 9 9 9 9 9 8 8 8 8 8 8 8 8 8 8 6 6 6 7 8 9 10 10 10 9 8 8 9 10 11 11 11 11 14 19 25 24 23 22 22 21 20 19 16 9 6 6 6 6 7 7 8 8 9 10 11 12 13 13 13 13
8 8 8 8 8 8 9 9 9 9 8 8 8 8 8 7 8 8 8 8 8 8 7 6 6 7 8 8 9 9 10 10 9 9 9 9 10 11 11 12 12 15 19 26 25 24 23 22 21 21 20 18 11 7 6 6 6 6 7 7 8 9 9 10 12 13 13 13 13
7 7 7 8 8 8 8 8 8 8 8 7 8 8 8 7 8 7 7 7 6 6 6 7 8 8 9 9 9 9 10 10 10 10 10 10 10 11 11 12 13 15 19 26 25 25 24 23 22 21 20 19 13 8 6 7 7 7 7 7 8 8 9 9 11 13 14 14 13
7 7 7 7 7 8 8 8 8 8 8 8 7 7 7 7 7 6 6 5 5 6 7 7 8 9 9 9 9 9 10 10 11 11 11 10 10 10 10 12 13 16 20 26 26 25 25 24 23 22 21 20 13 9 7 7 7 7 7 8 8 8 8 8 10 11 13 14 13
7 7 7 7 7 7 7 7 7 7 7 7 7 7 7 7 6 6 5 5 5 6 6 7 7 8 8 8 9 9 10 10 11 11 11 11 10 10 11 11 11 15 21 26 26 26 25 25 24 22 21 20 13 9 8 7 7 7 7 7 8 8 8 8 9 10 12 13 12
6 6 7 7 7 7 7 7 7 7 6 6 6 6 6 6 6 6 6 5 5 5 5 5 6 6 6 7 7 8 8 10 10 10 11 11 10 10 10 10 9 15 22 26 26 26 26 25 24 23 21 18 12 9 8 8 8 8 8 8 9 8 8 7 8 10 11 12 12
7 7 7 7 7 7 7 7 6 6 6 6 6 6 6 6 6 5 5 5 5 4 4 4 4 5 5 5 6 7 8 9 9 10 10 10 10 11 11 11 10 16 23 25 26 26 26 26 25 23 21 15 10 8 8 9 8 9 9 10 10 10 9 8 8 9 10 11 13
7 7 7 7 7 7 7 7 6 6 6 6 6 6 6 5 5 5 5 4 4 4 4 4 4 5 5 5 6 6 7 8 8 9 9 10 10 10 11 11 12 16 21 25 25 26 26 26 25 23 19 13 9 8 8 8 8 9 10 10 10 10 10 9 8 9 10 10 13
7 7 8 8 7 7 7 6 6 6 6 6 6 5 5 5 5 4 4 4 4 4 4 4 4 4 5 5 5 5 5 6 7 8 9 10 10 10 10 11 11 14 18 24 25 25 26 26 25 23 18 12 9 9 9 8 8 8 9 10 10 10 9 8 8 8 10 11 14
7 7 7 7 7 6 6 5 5 6 6 6 5 5 4 4 4 4 4 4 4 4 4 4 4 4 4 4 4 4 5 6 6 7 8 9 9 9 10 10 11 12 15 22 24 25 25 25 25 22 18 11 10 9 8 8 8 8 9 9 9 9 9 7 7 8 9 12 16
6 6 6 6 5 5 5 5 5 5 5 5 4 4 4 4 4 4 4 4 3 4 4 4 4 4 4 4 4 4 5 5 6 7 7 8 9 10 10 10 10 11 14 20 23 24 25 25 25 23 19 12 9 8 8 8 8 9 9 8 8 8 8 8 7 7 8 11 17
5 5 4 4 4 4 4 4 4 4 4 4 4 4 4 4 4 4 4 4 4 4 4 5 5 5 5 5 4 5 5 5 6 6 7 7 9 11 11 9 9 11 13 19 22 24 25 25 25 23 19 11 9 8 7 7 8 9 9 9 8 8 8 8 7 8 8 10 13
4 4 3 3 3 3 3 3 3 3 3 3 4 4 4 4 4 4 4 4 4 4 4 5 6 6 6 6 5 5 6 6 6 6 7 8 9 10 11 9 10 10 12 16 21 23 24 25 25 24 20 12 9 7 7 7 8 9 10 9 9 8 8 8 8 8 8 9 10
Wind_Direction
348 350 352 355 354 350 344 343 348 349 348 345 345 346 348 350 347 345 344 343 347 352 354 353 349 347 345 345 350 355 359 0 359 357 354 353 350 349 349 349 350 350 350 350 349 349 348 349 351 355 360 4 2 359 356 353 348 348 349 352 352 349 347 346 344 343 342 343 341
352 354 356 358 356 351 346 347 352 352 350 348 349 350 351 354 350 347 345 346 351 354 353 349 348 347 346 347 352 357 0 1 359 356 354 352 351 351 351 351 352 352 352 352 351 351 351 350 353 355 357 357 358 358 357 355 352 351 352 354 352 348 345 345 343 341 341 342 341
354 357 359 0 356 353 351 354 356 353 351 351 353 354 355 358 354 350 347 347 351 354 354 350 350 349 348 349 353 358 1 2 360 357 353 351 351 353 354 355 354 354 353 352 353 353 352 350 351 352 353 352 355 357 358 356 356 355 355 356 353 350 348 347 345 344 344 346 344
358 0 2 2 358 356 355 358 356 355 354 356 356 357 359 1 356 351 347 345 352 356 357 353 351 350 350 351 355 359 2 3 0 357 354 352 353 355 357 358 357 356 355 352 353 354 353 352 352 352 352 351 353 355 356 354 357 359 360 359 357 355 353 350 349 349 349 348 346
2 4 5 3 0 358 357 1 360 359 358 360 359 0 1 3 358 353 349 350 357 360 359 355 353 352 352 353 356 360 2 3 1 358 355 354 356 358 0 2 1 359 357 354 355 355 356 355 356 356 355 354 356 356 353 349 353 357 1 4 4 2 359 355 355 355 354 353 351
3 4 5 4 1 0 0 4 3 3 3 4 3 3 3 4 359 355 354 354 358 0 360 358 357 355 354 356 359 2 3 3 1 358 356 357 358 1 3 4 4 2 0 357 357 358 359 359 1 1 360 359 0 358 355 351 351 354 360 6 9 9 7 5 1 0 0 1 360
4 6 6 5 3 3 3 5 6 7 7 8 6 5 5 5 0 357 356 356 2 4 3 1 359 358 357 359 1 3 4 3 0 359 358 359 1 3 5 6 5 5 3 0 360 1 2 3 5 4 2 2 2 1 360 358 357 358 360 4 6 8 9 10 8 7 8 9 9
8 8 7 5 4 4 4 6 8 10 11 11 7 7 6 6 3 0 360 3 9 10 7 3 1 359 359 1 4 6 6 4 2 1 1 1 2 5 6 6 6 6 5 3 3 4 5 7 8 7 4 3 4 3 3 4 5 6 6 5 4 4 5 6 8 11 13 14 16
10 10 8 6 5 4 5 7 10 13 13 12 9 8 8 9 7 6 6 10 13 12 9 5 2 0 1 5 8 10 9 7 3 2 3 4 5 6 7 7 7 7 6 5 5 6 8 10 11 10 8 8 8 8 8 9 12 13 13 10 8 6 5 5 6 9 12 14 16
12 11 8 6 4 4 5 8 12 14 15 14 11 11 12 14 14 13 13 15 16 14 11 6 3 2 4 9 12 13 12 9 6 5 5 7 8 9 9 9 8 8 8 8 8 9 10 14 14 13 12 12 13 13 13 14 17 19 18 16 13 12 11 9 8 8 9 10 13
13 12 9 6 3 3 6 10 13 15 16 16 13 13 15 17 18 17 17 17 17 15 12 7 4 4 6 10 14 15 14 13 9 8 9 11 12 13 12 11 11 11 11 11 10 11 13 15 15 16 15 15 16 16 16 17 19 21 21 19 17 16 15 13 12 10 9 8 10
14 12 10 7 4 4 7 12 15 17 18 18 16 16 17 19 19 19 19 18 18 15 11 7 5 6 8 11 14 16 16 15 12 12 13 15 15 16 16 15 15 15 15 14 13 13 14 15 15 16 16 15 15 15 16 17 19 20 20 19 18 18 17 15 14 12 10 9 10
15 13 11 9 6 7 11 14 17 19 20 20 18 17 17 18 19 19 19 17 17 14 10 6 6 7 9 10 13 15 16 15 14 15 17 18 19 19 19 19 18 18 17 16 15 14 14 14 14 14 14 13 13 13 14 16 18 18 18 17 17 17 16 14 12 11 10 11 11
17 16 14 12 11 11 13 16 18 20 21 21 20 18 16 16 17 17 16 15 14 12 10 5 6 7 8 9 13 15 16 16 17 18 20 20 21 22 22 21 20 19 18 15 14 13 13 12 11 11 10 10 9 9 10 13 16 17 17 17 16 15 14 12 10 9 9 10 10
19 18 17 16 15 15 16 17 18 20 22 22 20 18 16 16 14 12 11 11 12 11 10 7 6 6 6 8 11 13 14 17 19 20 21 21 21 21 21 21 20 19 17 14 12 11 11 10 9 7 7 6 4 4 5 8 12 14 15 15 15 14 12 10 9 9 9 9 9
21 20 19 19 18 18 18 18 18 19 20 21 19 18 17 15 11 9 9 9 10 10 11 10 7 6 5 7 9 12 15 18 21 22 21 21 20 19 19 19 18 17 15 13 11 9 8 7 6 4 3 3 2 1 1 3 5 8 10 12 13 13 12 10 9 9 9 9 10
23 21 20 20 20 20 20 19 18 18 18 19 18 18 17 15 12 11 11 10 11 11 11 11 8 7 6 7 9 12 15 17 19 20 21 20 19 18 17 16 15 14 13 12 10 8 6 4 3 1 1 1 0 360 359 359 0 2 4 6 8 10 11 10 10 9 8 9 10
24 23 21 21 21 21 21 20 19 18 17 16 17 17 17 17 16 15 14 13 13 12 11 10 9 8 8 9 10 12 13 14 15 16 17 17 16 15 14 13 12 11 11 11 10 8 5 2 1 359 358 358 359 359 358 358 358 358 358 359 2 5 7 8 9 9 9 8 8
25 23 22 21 21 21 21 20 19 18 17 16 16 17 19 20 19 19 17 16 14 13 11 10 10 10 11 12 12 13 13 13 12 12 12 12 12 11 9 7 7 7 8 10 10 8 5 2 360 358 355 354 355 356 357 357 357 356 356 356 357 359 1 4 6 7 8 9 7
25 23 22 20 20 20 20 20 20 18 18 18 18 20 21 21 21 21 19 17 13 12 12 12 13 13 14 14 15 15 15 14 12 11 10 9 9 7 5 2 2 3 5 7 8 8 6 3 1 358 355 353 353 353 354 356 357 357 357 357 356 356 356 358 1 4 7 9 8
24 23 21 19 19 19 20 21 21 21 21 22 22 22 22 22 21 20 18 14 12 11 12 13 14 15 16 17 18 18 16 15 14 12 11 9 8 6 3 360 359 0 2 4 6 8 7 5 3 359 356 353 352 353 354 356 358 359 359 359 358 357 356 356 358 0 4 7 9
24 21 20 19 19 20 21 22 23 25 26 27 26 25 22 20 18 16 13 10 9 9 10 11 12 14 16 18 19 19 18 17 16 14 12 11 8 5 2 359 359 359 0 2 5 6 7 6 5 2 358 354 353 353 354 357 359 0 1 1 0 359 359 358 358 358 0 4 8
22 20 19 19 20 21 23 24 26 28 29 30 28 25 22 17 13 10 7 6 6 7 8 8 9 11 14 16 18 19 20 19 17 16 14 12 9 6 3 0 360 0 0 0 4 6 7 6 5 3 0 356 354 354 355 359 1 2 2 2 2 2 2 1 359 358 359 2 7
22 21 21 21 22 23 24 26 28 30 31 31 29 26 21 16 11 7 5 5 6 7 7 8 9 10 12 14 16 19 21 22 19 17 14 12 10 7 5 2 1 0 360 0 7 9 10 9 7 5 1 357 355 354 356 1 3 5 5 5 4 4 4 4 2 0 360 1 5
24 24 24 26 25 26 27 27 29 30 30 30 29 26 22 17 13 9 8 8 9 9 10 11 12 13 13 13 13 17 21 24 22 19 15 11 10 8 7 5 3 0 360 4 10 11 12 12 12 10 5 358 355 355 358 3 4 6 7 7 7 7 7 6 4 3 2 2 3
26 28 28 29 28 29 29 29 29 29 29 28 27 25 23 19 16 13 12 12 12 12 12 14 15 15 13 11 11 14 18 23 24 21 18 13 10 9 8 7 3 0 2 8 11 12 12 12 13 14 12 3 357 356 359 2 3 5 6 9 9 10 10 9 7 5 3 3 3
28 30 31 31 31 31 31 30 29 28 27 26 25 24 22 19 18 17 16 16 15 14 14 15 15 14 13 10 11 12 14 18 21 21 20 16 13 11 9 7 3 2 6 11 12 12 12 12 13 14 14 11 1 357 357 359 360 2 6 9 12 13 14 12 9 6 4 3 3
29 31 33 33 33 33 32 31 30 28 26 24 23 21 20 20 20 20 19 17 15 15 15 15 13 12 11 12 11 11 11 12 15 17 19 18 16 13 10 7 3 4 9 13 13 12 12 12 13 13 14 14 6 358 356 357 359 2 6 10 13 15 16 16 12 9 6 4 5
31 33 34 34 34 33 33 32 31 28 26 23 21 19 18 19 20 20 20 18 17 17 17 13 10 10 12 13 10 10 9 9 9 12 15 18 17 14 11 7 4 6 9 12 13 13 12 12 13 13 14 14 10 1 357 359 0 3 6 10 13 16 18 19 16 13 10 7 6
31 33 35 34 34 34 33 32 31 29 26 23 19 17 16 15 16 18 19 19 19 19 16 13 12 13 13 12 10 10 9 7 6 7 11 16 17 14 10 7 4 5 8 12 13 13 13 12 13 13 13 13 9 3 358 359 1 3 5 7 11 16 20 22 20 17 13 9 8
32 33 34 34 35 35 34 32 30 28 25 23 19 16 14 12 13 14 16 19 19 17 16 16 16 15 14 13 12 11 10 8 6 6 8 12 14 13 10 6 3 5 8 11 13 13 13 13 13 13 12 11 8 3 359 0 2 3 3 4 8 14 20 24 23 20 16 13 10
32 32 32 33 35 35 34 31 29 27 25 22 19 16 13 11 9 9 12 16 18 17 17 17 17 16 14 13 13 12 11 10 7 6 6 8 10 11 10 7 4 5 8 12 13 14 14 13 13 12 11 10 6 0 357 0 2 2 2 2 5 11 18 25 25 22 19 16 13
30 30 31 32 33 34 33 31 29 26 23 20 17 15 12 9 6 6 8 14 19 19 19 19 18 17 16 14 14 13 12 11 8 6 5 6 7 9 10 9 5 5 8 12 13 14 14 14 13 12 11 8 4 359 356 359 1 2 3 2 3 8 15 24 26 24 21 18 15
27 27 28 30 31 32 32 31 28 24 19 16 13 11 9 8 6 5 7 11 16 19 21 22 22 20 18 17 16 15 13 12 9 7 6 5 7 10 11 10 5 5 8 12 14 15 15 15 15 13 11 8 3 358 356 358 0 2 3 2 2 5 10 17 24 24 22 18 16
24 25 26 27 29 30 31 30 26 21 16 11 8 7 6 8 7 6 5 6 11 15 18 20 21 21 20 20 20 19 17 13 10 8 7 7 9 10 11 9 4 5 8 12 14 15 16 16 16 14 12 8 3 359 358 359 0 1 2 3 3 3 5 10 17 19 19 17 15
24 24 25 26 28 28 28 26 21 17 11 8 5 3 3 4 4 2 1 1 8 11 13 14 18 20 21 20 19 19 18 15 11 9 8 9 11 12 10 7 4 4 7 11 14 15 16 17 17 16 14 10 5 1 0 1 0 0 2 4 4 3 4 6 11 14 15 14 14
27 26 26 26 27 26 24 20 17 13 8 3 0 360 359 360 358 356 356 0 6 7 8 10 16 18 19 19 17 15 14 14 14 11 10 10 12 12 10 7 3 3 5 9 13 15 16 17 18 18 16 11 6 3 2 2 0 1 2 4 3 3 3 4 7 10 11 10 12
29 28 27 27 25 22 18 15 14 10 5 359 355 353 354 356 355 354 354 359 6 6 5 6 12 13 13 14 13 9 8 12 15 15 13 11 11 11 11 7 3 2 4 8 12 14 15 17 19 20 19 14 8 4 3 2 1 1 3 4 2 2 2 3 4 6 8 8 9
30 28 27 25 21 17 14 12 11 7 2 356 352 350 351 354 353 352 352 357 4 7 6 6 6 5 3 6 7 5 4 6 13 16 15 11 10 11 11 9 4 2 3 7 11 13 15 16 18 20 21 19 11 6 4 3 2 3 3 3 1 1 1 2 2 4 5 5 7
25 23 22 21 17 13 10 9 6 2 358 355 352 351 350 352 351 350 350 356 3 8 9 8 4 1 1 6 7 5 2 2 8 13 15 12 10 11 11 9 4 2 3 6 9 12 14 15 17 19 21 22 14 9 6 5 5 5 4 3 1 0 360 360 1 2 3 2 4
14 10 11 13 12 11 8 6 0 357 356 357 354 351 349 351 351 352 355 0 6 10 11 10 6 4 4 6 8 7 5 4 5 8 12 12 12 11 10 7 4 3 4 5 8 11 12 14 16 17 19 22 16 11 8 8 8 6 5 1 0 359 358 357 359 1 2 1 1